Location: Cuzcurrita-R�o Tir�n
(42.5415°N, 2.9642°W)
Time: 21:40:30
(UTC+00:00)

Cosmos 2228 - Visible Passes

Search period start: 05 May 2021 00:00
Search period end: 15 May 2021 00:00
Orbit: 587 x 619 km, 82.5° (Epoch: 05 May)

Date Brightness Start Highest point End Pass type
(mag) Time Alt. Az. Time Alt. Az. Time Alt. Az.
05 May 6.5 03:07:01 10° ENE 03:07:46 10° ENE 03:08:31 10° ENE visible
06 May 5.9 03:17:37 10° NNE 03:20:24 17° ENE 03:23:11 10° ESE visible
07 May 5.2 03:29:19 10° NNE 03:32:58 27° ENE 03:36:35 10° SE visible
08 May 4.3 03:41:22 10° N 03:45:27 43° ENE 03:49:32 10° SSE visible
09 May 3.2 03:53:37 10° N 03:57:53 74° E 04:02:09 10° SSE visible
10 May 6.1 02:30:54 10° NE 02:32:15 11° ENE 02:33:36 10° E visible
10 May 3.0 04:06:00 10° NNW 04:10:15 65° W 04:14:30 10° S visible
11 May 5.7 02:41:54 10° NNE 02:44:52 18° ENE 02:47:51 10° ESE visible
11 May 3.6 04:18:36 10° NNW 04:22:34 38° W 04:26:32 10° SSW visible
12 May 5.0 02:53:41 10° NNE 02:57:25 28° ENE 03:01:09 10° SE visible
13 May 4.0 03:05:46 10° N 03:09:54 47° ENE 03:14:03 10° SSE visible
14 May 3.1 03:18:01 10° N 03:22:19 80° E 03:26:38 10° S visible
